X

Important NEWS



New Hub Active

Miami is our new hub! Old members can request transfer via hr@dlxairways.net

Thank you very much and have nice flight.


Deluxe Airways.

X

Tours



Hello again, we created one nice test tour for all pilots to attend. also this is ment to be testing of our tour system

Available Tours

If you find some issues please inform us.

Thank you very much and have nice flight.


Deluxe Airways.

 METAR AND TAF INFORMATION
ArrayMETAR FOR LYPG
148500124 5 LYPG 140030Z 36008KT CAVOK 21/05 Q1014 NOSIG LYPG 2020-07-14T00:30:00Z 42.37 19.25 21.0 5.0 360 8 6.21 29.940945 TRUE VFR METAR 43.0 LYPG 140000Z 36009KT CAVOK 21/05 Q1014 NOSIG LYPG 2020-07-14T00:00:00Z 42.37 19.25 21.0 5.0 360 9 6.21 29.940945 TRUE VFR METAR 43.0 LYPG 132330Z 01010KT 270V040 CAVOK 22/05 Q1014 NOSIG LYPG 2020-07-13T23:30:00Z 42.37 19.25 22.0 5.0 10 10 6.21 29.940945 TRUE VFR METAR 43.0 LYPG 132300Z 02009KT CAVOK 22/05 Q1014 NOSIG LYPG 2020-07-13T23:00:00Z 42.37 19.25 22.0 5.0 20 9 6.21 29.940945 TRUE VFR METAR 43.0

 AIRPORT MAP

 RUNWAY INFORMATION
Runway 08 Runway length 7145 ft Runway width 50 ft
Runway elevation 0 ft Runway displaced threshold 0 ft Runway heading 86
Runway 26 Runway length 7145 ft Runway width 50 ft
Runway elevation 0 ft Runway displaced threshold 0 ft Runway heading 266
Runway 18 Runway length 8202 ft Runway width 148 ft
Runway elevation 118 ft Runway displaced threshold 0 ft Runway heading 184
Runway 36 Runway length 8202 ft Runway width 148 ft
Runway elevation 82 ft Runway displaced threshold 0 ft Runway heading 4

 AIRPORT FREQUENCIES
Type APP Name APP Frequency 118.7 MHZ
Type TWR Name TWR Frequency 118.2 MHZ

 AIRPORT NEAR NAVIGATION AIDS
Type NDB Name Podgorica Frequency 312 KHZ
Type VOR-DME Name Podgorica Frequency 113000 KHZ
Type NDB Name Podgorica Frequency 335 KHZ



Powered by Virtual Airlines Manager [v2.6.2]

Template code change by DeluxeAir